Flight Track Log - Related Links

Times and Time Zones

All times are in EST time to prevent confusion due to time zone crossing. See the FIN666 flight status page for this flight to view local times or setup timezone preferences in your user account.

Time Position Orientation Groundspeed Altitude Reporting Facility
EST Latitude Longitude Course Direction KTS MPH feet Rate Location/Type
Sun 07:32:00 AM 56.0189 13.4911 49° Northeast  Level Estimated
Sun 07:33:00 AM 56.0985 13.6603 50° Northeast  Level Estimated
Sun 07:34:00 AM 56.1858 13.8474 50° Northeast  Level Estimated
Sun 07:35:00 AM 56.2729 14.0353 50° Northeast  Level Estimated
Sun 07:36:00 AM 56.3596 14.2242 50° Northeast  Level Estimated
Sun 07:37:00 AM 56.4461 14.4139 50° Northeast  Level Estimated
Sun 07:38:00 AM 56.5323 14.6044 51° Northeast  Level Estimated
Sun 07:39:00 AM 56.6182 14.7958 51° Northeast  Level Estimated
Sun 07:40:00 AM 56.7024 14.9849 51° Northeast  Level Estimated
Sun 07:41:00 AM 56.7863 15.1748 51° Northeast  Level Estimated
Sun 07:42:00 AM 56.8699 15.3656 51° Northeast  Level Estimated
Sun 07:43:00 AM 56.9532 15.5572 51° Northeast  Level Estimated
Sun 07:44:00 AM 57.0362 15.7497 52° Northeast  Level Estimated
Sun 07:45:00 AM 57.1189 15.9431 52° Northeast  Level Estimated
Sun 07:46:00 AM 57.2013 16.1373 52° Northeast  Level Estimated
Sun 07:47:00 AM 57.2834 16.3324 52° Northeast  Level Estimated
Sun 07:48:00 AM 57.3652 16.5283 52° Northeast  Level Estimated
Sun 07:49:00 AM 57.4468 16.7251 52° Northeast  Level Estimated
Sun 07:50:00 AM 57.5280 16.9228 53° Northeast  Level Estimated
Sun 07:51:00 AM 57.6088 17.1214 53° Northeast  Level Estimated
Sun 07:52:00 AM 57.6894 17.3209 53° Northeast  Level Estimated
Sun 07:53:00 AM 57.7697 17.5212 53° Northeast  Level Estimated
Sun 07:54:00 AM 57.8496 17.7225 53° Northeast  Level Estimated
Sun 07:55:00 AM 57.9292 17.9246 53° Northeast  Level Estimated
Sun 07:56:00 AM 58.0085 18.1276 54° Northeast  Level Estimated
Sun 07:57:00 AM 58.0875 18.3316 54° Northeast  Level Estimated
Sun 07:58:00 AM 58.1662 18.5364 54° Northeast  Level Estimated
Sun 07:59:00 AM 58.2445 18.7421 54° Northeast  Level Estimated
Sun 08:00:00 AM 58.3225 18.9488 54° Northeast  Level Estimated
Sun 08:01:00 AM 58.4001 19.1564 54° Northeast  Level Estimated
Sun 08:02:00 AM 58.4775 19.3648 55° Northeast  Level Estimated
Sun 08:03:00 AM 58.5544 19.5742 55° Northeast  Level Estimated
Sun 08:04:00 AM 58.6311 19.7845 55° Northeast  Level Estimated
Sun 08:05:00 AM 58.7074 19.9958 55° Northeast  Level Estimated
Sun 08:06:00 AM 58.7833 20.2079 55° Northeast  Level Estimated
Sun 08:07:00 AM 58.8589 20.4210 55° Northeast  Level Estimated
Sun 08:08:00 AM 58.9354 20.6387 56° Northeast  Level Estimated
Sun 08:09:00 AM 59.0116 20.8573 56° Northeast  Level Estimated
Sun 08:10:00 AM 59.0873 21.0769 56° Northeast  Level Estimated
Sun 08:11:00 AM 59.1627 21.2975 56° Northeast  Level Estimated
Sun 08:12:00 AM 59.2378 21.5190 56° Northeast  Level Estimated
Sun 08:13:00 AM 59.3124 21.7415 57° Northeast  Level Estimated
Sun 08:14:00 AM 59.3867 21.9650 57° Northeast  Level Estimated
Sun 08:15:00 AM 59.4606 22.1894 57° Northeast  Level Estimated
Sun 08:16:00 AM 59.5341 22.4149 57° Northeast  Level Estimated
Sun 08:17:00 AM 59.6072 22.6413 57° Northeast  Level Estimated
Sun 08:18:00 AM 59.6799 22.8687 58° Northeast  Level Estimated
Sun 08:19:00 AM 59.7522 23.0971 58° Northeast  Level Estimated
Sun 08:20:00 AM 59.8242 23.3265 58° Northeast  Level Estimated
Sun 08:21:00 AM 59.8957 23.5568 58° Northeast  Level Estimated
Sun 08:22:00 AM 59.9668 23.7882 58° Northeast  Level Estimated
Sun 08:23:00 AM 60.0375 24.0206 59° Northeast  Level Estimated
Sun 08:24:00 AM 60.1078 24.2539 59° Northeast  Level Estimated
Sun 08:25:00 AM 60.1777 24.4883 59° Northeast  Level Estimated
Sun 08:26:00 AM 60.2472 24.7236 59° Northeast  Level Estimated
Sun 08:27:00 AM 60.3162 24.9599 59° Northeast  Level Estimated
Sun 08:28:00 AM 60.3172 24.9633 60° Northeast  Level Estimated
Sun 08:29:00 AM 60.3172 24.9633 37° Northeast  Level Estimated
Sun 08:30:00 AM 60.3172 24.9633 37° Northeast  Level Estimated
Sun 08:31:00 AM 60.3172 24.9633 37° Northeast  Level Estimated
Sun 08:32:00 AM 60.3172 24.9633 37° Northeast  Level Estimated
Sun 08:33:00 AM 60.3172 24.9633 37° Northeast  Level Estimated
Sun 08:34:00 AM 60.3172 24.9633 37° Northeast  Level Estimated
Sun 08:35:00 AM 60.3172 24.9633 37° Northeast  Level Estimated
Sun 08:36:00 AM 60.3172 24.9633 37° Northeast  Level Estimated
Sun 08:37:00 AM 60.3172 24.9633 37° Northeast  Level Estimated
Sun 08:38:00 AM 60.3172 24.9633 37° Northeast  Level Estimated
Sun 08:39:00 AM 60.3172 24.9633 37° Northeast  Level Estimated
Sun 08:40:00 AM 60.3172 24.9633 37° Northeast  Level Estimated
Sun 08:41:00 AM 60.3172 24.9633 37° Northeast  Level Estimated
Sun 08:42:00 AM 60.3172 24.9633 37° Northeast  Level Estimated

Login

Don't have an account? Register now (free) for customized features, flight alerts, and more!